TimeCDT,TemperatureF,Dew PointF,Humidity,Sea Level PressureIn,VisibilityMPH,Wind Direction,Wind SpeedMPH,Gust SpeedMPH,PrecipitationIn,Events,Conditions,WindDirDegrees,DateUTC
12:15 AM,64.4,53.6,68,29.91,10.0,Calm,Calm,-,N/A,,Clear,0,2013-09-17 05:15:00
12:35 AM,62.6,53.6,72,29.91,10.0,South,3.5,-,N/A,,Clear,190,2013-09-17 05:35:00
12:55 AM,59.0,53.6,82,29.91,10.0,Calm,Calm,-,N/A,,Clear,0,2013-09-17 05:55:00
1:15 AM,62.6,53.6,72,29.91,10.0,Calm,Calm,-,N/A,,Clear,0,2013-09-17 06:15:00
1:35 AM,62.6,53.6,72,29.91,10.0,Calm,Calm,-,N/A,,Clear,0,2013-09-17 06:35:00
1:55 AM,57.2,53.6,88,29.91,10.0,SSE,3.5,-,N/A,,Clear,160,2013-09-17 06:55:00
2:15 AM,55.4,53.6,94,29.90,10.0,South,3.5,-,N/A,,Clear,180,2013-09-17 07:15:00
2:35 AM,57.2,53.6,88,29.90,10.0,Calm,Calm,-,N/A,,Clear,0,2013-09-17 07:35:00
2:55 AM,55.4,51.8,88,29.90,10.0,Calm,Calm,-,N/A,,Clear,0,2013-09-17 07:55:00
3:15 AM,55.4,51.8,88,29.89,10.0,South,3.5,-,N/A,,Clear,190,2013-09-17 08:15:00
3:35 AM,55.4,51.8,88,29.89,10.0,South,4.6,-,N/A,,Clear,180,2013-09-17 08:35:00
3:55 AM,55.4,51.8,88,29.89,10.0,SSW,4.6,-,N/A,,Clear,200,2013-09-17 08:55:00
4:15 AM,55.4,51.8,88,29.88,10.0,SSW,6.9,-,N/A,,Clear,200,2013-09-17 09:15:00
4:35 AM,55.4,51.8,88,29.88,10.0,Calm,Calm,-,N/A,,Clear,0,2013-09-17 09:35:00
4:55 AM,62.6,51.8,68,29.88,10.0,Calm,Calm,-,N/A,,Clear,0,2013-09-17 09:55:00
5:15 AM,55.4,50.0,82,29.88,10.0,Calm,Calm,-,N/A,,Clear,0,2013-09-17 10:15:00
5:35 AM,57.2,50.0,77,29.88,10.0,SW,3.5,-,N/A,,Clear,220,2013-09-17 10:35:00
5:55 AM,53.6,50.0,88,29.88,10.0,Calm,Calm,-,N/A,,Clear,0,2013-09-17 10:55:00
6:15 AM,57.2,50.0,77,29.88,10.0,Calm,Calm,-,N/A,,Clear,0,2013-09-17 11:15:00
6:35 AM,59.0,50.0,72,29.88,10.0,South,9.2,-,N/A,,Clear,190,2013-09-17 11:35:00
6:55 AM,57.2,50.0,77,29.88,10.0,SSW,6.9,-,N/A,,Clear,200,2013-09-17 11:55:00
7:15 AM,57.2,50.0,77,29.88,10.0,Calm,Calm,-,N/A,,Clear,0,2013-09-17 12:15:00
7:35 AM,55.4,50.0,82,29.88,10.0,Calm,Calm,-,N/A,,Clear,0,2013-09-17 12:35:00
7:55 AM,59.0,53.6,82,29.88,10.0,Calm,Calm,-,N/A,,Clear,0,2013-09-17 12:55:00
8:35 AM,66.2,53.6,64,29.88,10.0,Calm,Calm,-,N/A,,Clear,0,2013-09-17 13:35:00
8:55 AM,68.0,53.6,60,29.88,10.0,Calm,Calm,-,N/A,,Clear,0,2013-09-17 13:55:00
9:15 AM,69.8,53.6,56,29.88,10.0,Calm,Calm,-,N/A,,Clear,0,2013-09-17 14:15:00
9:35 AM,71.6,53.6,53,29.88,10.0,Calm,Calm,-,N/A,,Clear,0,2013-09-17 14:35:00
9:55 AM,73.4,55.4,53,29.88,10.0,Calm,Calm,-,N/A,,Clear,0,2013-09-17 14:55:00
10:15 AM,75.2,55.4,50,29.87,10.0,NE,3.5,-,N/A,,Clear,40,2013-09-17 15:15:00
10:35 AM,75.2,55.4,50,29.87,10.0,NE,4.6,-,N/A,,Clear,40,2013-09-17 15:35:00
10:55 AM,77.0,53.6,44,29.87,10.0,NE,5.8,-,N/A,,Clear,50,2013-09-17 15:55:00
11:15 AM,77.0,53.6,44,29.86,10.0,ENE,5.8,-,N/A,,Clear,60,2013-09-17 16:15:00
11:35 AM,80.6,55.4,42,29.85,10.0,East,5.8,-,N/A,,Clear,80,2013-09-17 16:35:00
11:55 AM,80.6,53.6,39,29.85,10.0,NE,5.8,-,N/A,,Clear,50,2013-09-17 16:55:00
12:15 PM,82.4,55.4,39,29.84,10.0,ENE,4.6,-,N/A,,Clear,70,2013-09-17 17:15:00
12:35 PM,82.4,55.4,39,29.84,10.0,NE,5.8,-,N/A,,Clear,50,2013-09-17 17:35:00
12:55 PM,84.2,55.4,37,29.83,10.0,ENE,9.2,-,N/A,,Clear,70,2013-09-17 17:55:00
1:15 PM,84.2,53.6,35,29.82,10.0,NE,8.1,-,N/A,,Clear,50,2013-09-17 18:15:00
1:35 PM,84.2,53.6,35,29.82,10.0,ENE,8.1,-,N/A,,Clear,60,2013-09-17 18:35:00
1:55 PM,84.2,53.6,35,29.81,10.0,East,12.7,-,N/A,,Clear,100,2013-09-17 18:55:00
2:15 PM,82.4,50.0,32,29.81,10.0,ENE,8.1,-,N/A,,Clear,70,2013-09-17 19:15:00
2:35 PM,84.2,46.4,27,29.80,10.0,ESE,13.8,-,N/A,,Clear,110,2013-09-17 19:35:00
2:55 PM,86.0,46.4,25,29.79,10.0,East,10.4,-,N/A,,Clear,90,2013-09-17 19:55:00
3:15 PM,84.2,46.4,27,29.78,10.0,East,10.4,-,N/A,,Clear,100,2013-09-17 20:15:00
3:35 PM,86.0,48.2,27,29.77,10.0,East,10.4,-,N/A,,Clear,100,2013-09-17 20:35:00
3:55 PM,84.2,48.2,29,29.77,10.0,East,13.8,19.6,N/A,,Clear,90,2013-09-17 20:55:00
4:15 PM,84.2,48.2,29,29.76,10.0,East,13.8,18.4,N/A,,Clear,100,2013-09-17 21:15:00
4:35 PM,84.2,48.2,29,29.75,10.0,ESE,15.0,19.6,N/A,,Clear,110,2013-09-17 21:35:00
4:55 PM,82.4,48.2,30,29.75,10.0,ESE,15.0,-,N/A,,Clear,110,2013-09-17 21:55:00
5:15 PM,82.4,51.8,35,29.75,10.0,SE,11.5,-,N/A,,Clear,130,2013-09-17 22:15:00
5:35 PM,80.6,53.6,39,29.75,10.0,SE,9.2,-,N/A,,Clear,130,2013-09-17 22:35:00
5:55 PM,78.8,55.4,44,29.74,10.0,SSE,8.1,-,N/A,,Clear,150,2013-09-17 22:55:00
6:15 PM,82.4,51.8,35,29.74,10.0,SE,11.5,16.1,N/A,,Clear,130,2013-09-17 23:15:00
6:35 PM,77.0,55.4,47,29.74,10.0,SSE,9.2,-,N/A,,Clear,160,2013-09-17 23:35:00
6:55 PM,82.4,41.0,23,29.73,10.0,SSE,12.7,17.3,N/A,,Clear,160,2013-09-17 23:55:00
7:15 PM,77.0,48.2,36,29.73,10.0,SSE,11.5,-,N/A,,Clear,150,2013-09-18 00:15:00
7:35 PM,75.2,48.2,38,29.72,10.0,ESE,12.7,-,N/A,,Partly Cloudy,120,2013-09-18 00:35:00
7:55 PM,73.4,51.8,47,29.72,10.0,SSE,5.8,-,N/A,Thunderstorm,Partly Cloudy,150,2013-09-18 00:55:00
8:15 PM,73.4,50.0,44,29.74,10.0,West,3.5,-,N/A,Thunderstorm,Mostly Cloudy,280,2013-09-18 01:15:00
8:35 PM,73.4,48.2,41,29.74,10.0,NNW,8.1,-,N/A,,Mostly Cloudy,330,2013-09-18 01:35:00
8:55 PM,73.4,48.2,41,29.74,10.0,West,6.9,-,N/A,,Mostly Cloudy,270,2013-09-18 01:55:00
9:15 PM,71.6,50.0,46,29.74,10.0,Calm,Calm,-,N/A,Thunderstorm,Overcast,0,2013-09-18 02:15:00
9:35 PM,68.0,53.6,60,29.73,10.0,SSW,11.5,-,N/A,Thunderstorm,Scattered Clouds,200,2013-09-18 02:35:00
9:55 PM,66.2,53.6,64,29.73,10.0,SSW,11.5,-,N/A,,Partly Cloudy,210,2013-09-18 02:55:00
10:15 PM,68.0,48.2,49,29.73,10.0,SSW,12.7,20.7,N/A,,Partly Cloudy,210,2013-09-18 03:15:00
10:35 PM,71.6,46.4,41,29.74,10.0,SSW,11.5,-,N/A,,Partly Cloudy,200,2013-09-18 03:35:00
10:55 PM,69.8,48.2,46,29.74,10.0,SSW,11.5,-,N/A,,Scattered Clouds,210,2013-09-18 03:55:00
11:15 PM,68.0,48.2,49,29.74,10.0,SSW,10.4,-,N/A,,Partly Cloudy,210,2013-09-18 04:15:00
11:35 PM,73.4,44.6,36,29.74,10.0,SW,11.5,-,N/A,,Clear,220,2013-09-18 04:35:00
11:55 PM,66.2,46.4,49,29.73,10.0,West,3.5,-,N/A,,Clear,260,2013-09-18 04:55:00